RUK20ED EIKN-EGPH

Flight info

Callsign RUK20ED
Flight time 0h 41m
Altitude 35000
Route CON DCT OLAPO DCT ROTEV DCT GOTNA DCT BLACA P600 TUNSO
Aircraft B738/M-SDE2E3FGHIRWXY/LB1

Departure

Time 2026-05-09 20:51
Airport Ireland West Airport Knock (EIKN)

Arrival

Time 2026-05-09 21:32
Airport Edinburgh Airport (EGPH)
Time Latitude Longitude Altitude Speed Heading
2026-05-09 20:32 53.91344 -8.81000 652 ft 0 kts 259°
2026-05-09 20:43 53.91347 -8.80975 650 ft 4 kts 250°
2026-05-09 20:44 53.91361 -8.80939 656 ft 4 kts 210°
2026-05-09 20:44 53.91378 -8.80931 652 ft 0 kts 172°
2026-05-09 20:47 53.91368 -8.80929 654 ft 4 kts 172°
2026-05-09 20:47 53.91310 -8.80911 653 ft 11 kts 168°
2026-05-09 20:47 53.91233 -8.80884 653 ft 11 kts 169°
2026-05-09 20:47 53.91158 -8.80881 657 ft 11 kts 214°
2026-05-09 20:48 53.91127 -8.81016 656 ft 16 kts 259°
2026-05-09 20:48 53.91096 -8.81287 650 ft 30 kts 259°
2026-05-09 20:48 53.91053 -8.81654 650 ft 32 kts 259°
2026-05-09 20:48 53.91010 -8.82011 652 ft 30 kts 259°
2026-05-09 20:49 53.90969 -8.82365 658 ft 31 kts 258°
2026-05-09 20:49 53.90926 -8.82730 657 ft 30 kts 259°
2026-05-09 20:49 53.90885 -8.83073 653 ft 31 kts 259°
2026-05-09 20:49 53.90843 -8.83437 654 ft 26 kts 259°
2026-05-09 20:50 53.90798 -8.83629 654 ft 10 kts 327°
2026-05-09 20:50 53.90840 -8.83455 655 ft 42 kts 79°
2026-05-09 20:50 53.90947 -8.82547 654 ft 112 kts 79°
2026-05-09 20:50 53.91128 -8.80939 771 ft 156 kts 77°
2026-05-09 20:51 53.91199 -8.79115 1617 ft 155 kts 84°
2026-05-09 20:51 53.91048 -8.77247 2413 ft 165 kts 91°
2026-05-09 20:51 53.90863 -8.75211 2975 ft 185 kts 92°
2026-05-09 20:51 53.90667 -8.72986 3456 ft 200 kts 93°
2026-05-09 20:52 53.90452 -8.70508 3794 ft 220 kts 93°
2026-05-09 20:52 53.90226 -8.67879 4482 ft 234 kts 94°
2026-05-09 20:52 53.89984 -8.65033 5156 ft 251 kts 95°
2026-05-09 20:52 53.89732 -8.62082 6089 ft 257 kts 95°
2026-05-09 20:53 53.89494 -8.59035 6984 ft 264 kts 89°
2026-05-09 20:53 53.89876 -8.56022 7883 ft 264 kts 65°
2026-05-09 20:53 53.90725 -8.53235 8820 ft 267 kts 57°
2026-05-09 20:53 53.91701 -8.50522 9730 ft 273 kts 56°
2026-05-09 20:54 53.92729 -8.47749 10534 ft 281 kts 55°
2026-05-09 20:54 53.93808 -8.44850 10973 ft 304 kts 55°
2026-05-09 20:54 53.94970 -8.41712 11415 ft 322 kts 56°
2026-05-09 20:54 53.96166 -8.38449 12271 ft 326 kts 55°
2026-05-09 20:55 53.97361 -8.35160 13184 ft 330 kts 57°
2026-05-09 20:55 53.98577 -8.31799 13960 ft 337 kts 56°
2026-05-09 20:55 53.99805 -8.28386 14778 ft 340 kts 56°
2026-05-09 20:55 54.01045 -8.24931 15561 ft 345 kts 56°
2026-05-09 20:56 54.02301 -8.21426 16279 ft 350 kts 56°
2026-05-09 20:56 54.04855 -8.14270 17793 ft 359 kts 56°
2026-05-09 20:56 54.06158 -8.10607 18559 ft 363 kts 56°
2026-05-09 20:57 54.07456 -8.06956 19199 ft 368 kts 56°
2026-05-09 20:57 54.08808 -8.03146 19839 ft 373 kts 56°
2026-05-09 20:57 54.10156 -7.99341 20477 ft 378 kts 56°
2026-05-09 20:57 54.11502 -7.95537 21104 ft 382 kts 56°
2026-05-09 20:58 54.12885 -7.91620 21729 ft 387 kts 57°
2026-05-09 20:58 54.14280 -7.87663 22344 ft 392 kts 57°
2026-05-09 20:58 54.15689 -7.83658 22933 ft 396 kts 57°
2026-05-09 20:58 54.17113 -7.79605 23535 ft 401 kts 57°
2026-05-09 20:59 54.18555 -7.75496 24072 ft 405 kts 57°
2026-05-09 20:59 54.20008 -7.71348 24589 ft 408 kts 57°
2026-05-09 20:59 54.21468 -7.67171 25100 ft 411 kts 57°
2026-05-09 21:00 54.24414 -7.58726 26093 ft 417 kts 57°
2026-05-09 21:00 54.25900 -7.54452 26572 ft 420 kts 57°
2026-05-09 21:00 54.27400 -7.50133 27043 ft 423 kts 57°
2026-05-09 21:00 54.28908 -7.45785 27489 ft 427 kts 57°
2026-05-09 21:01 54.30431 -7.41388 27896 ft 431 kts 57°
2026-05-09 21:01 54.31964 -7.36951 28326 ft 435 kts 57°
2026-05-09 21:01 54.33506 -7.32480 28794 ft 437 kts 57°
2026-05-09 21:02 54.36608 -7.23453 29677 ft 442 kts 57°
2026-05-09 21:02 54.38168 -7.18904 30210 ft 442 kts 57°
2026-05-09 21:02 54.39717 -7.14373 30776 ft 439 kts 57°
2026-05-09 21:02 54.41256 -7.09865 31320 ft 436 kts 57°
2026-05-09 21:03 54.42787 -7.05373 31809 ft 435 kts 57°
2026-05-09 21:03 54.44311 -7.00894 32253 ft 434 kts 57°
2026-05-09 21:03 54.45825 -6.96438 32732 ft 433 kts 57°
2026-05-09 21:03 54.47344 -6.91962 33095 ft 435 kts 57°
2026-05-09 21:04 54.48872 -6.87454 33462 ft 436 kts 56°
2026-05-09 21:04 54.50390 -6.82966 33948 ft 434 kts 57°
2026-05-09 21:04 54.51901 -6.78481 34440 ft 431 kts 57°
2026-05-09 21:04 54.53394 -6.74043 34793 ft 431 kts 57°
2026-05-09 21:05 54.54896 -6.69574 35085 ft 431 kts 57°
2026-05-09 21:05 54.56397 -6.65097 35343 ft 433 kts 57°
2026-05-09 21:05 54.57915 -6.60568 35341 ft 438 kts 57°
2026-05-09 21:06 54.60940 -6.51505 35320 ft 431 kts 57°
2026-05-09 21:06 54.63906 -6.42584 35329 ft 430 kts 57°
2026-05-09 21:07 54.66869 -6.33646 35333 ft 433 kts 57°
2026-05-09 21:07 54.69869 -6.24565 35329 ft 437 kts 57°
2026-05-09 21:08 54.72881 -6.15411 35326 ft 439 kts 57°
2026-05-09 21:08 54.75859 -6.06318 35305 ft 425 kts 57°
2026-05-09 21:08 54.77287 -6.01936 35299 ft 410 kts 57°
2026-05-09 21:09 54.78665 -5.97700 35298 ft 398 kts 57°
2026-05-09 21:09 54.80002 -5.93588 35298 ft 385 kts 57°
2026-05-09 21:09 54.81294 -5.89610 35303 ft 373 kts 57°
2026-05-09 21:10 54.84098 -5.82129 35059 ft 372 kts 48°
2026-05-09 21:10 54.85746 -5.78595 34298 ft 383 kts 46°
2026-05-09 21:10 54.87502 -5.74972 33160 ft 401 kts 45°
2026-05-09 21:10 54.89336 -5.71261 32432 ft 407 kts 45°
2026-05-09 21:11 54.91180 -5.67540 32031 ft 405 kts 45°
2026-05-09 21:12 54.98357 -5.52956 30623 ft 394 kts 45°
2026-05-09 21:12 55.00131 -5.49330 30215 ft 393 kts 46°
2026-05-09 21:12 55.01897 -5.45712 29776 ft 391 kts 46°
2026-05-09 21:12 55.03655 -5.42104 29317 ft 389 kts 46°
2026-05-09 21:13 55.05398 -5.38521 28918 ft 386 kts 46°
2026-05-09 21:13 55.07130 -5.34956 28525 ft 383 kts 46°
2026-05-09 21:13 55.08847 -5.31416 28138 ft 380 kts 46°
2026-05-09 21:13 55.10550 -5.27902 27744 ft 378 kts 46°
2026-05-09 21:14 55.12240 -5.24407 27333 ft 376 kts 46°
2026-05-09 21:14 55.13923 -5.20924 26957 ft 373 kts 46°
2026-05-09 21:14 55.15589 -5.17468 26621 ft 371 kts 46°
2026-05-09 21:14 55.17243 -5.14032 26287 ft 367 kts 46°
2026-05-09 21:15 55.18882 -5.10624 25941 ft 365 kts 46°
2026-05-09 21:15 55.20510 -5.07237 25575 ft 362 kts 46°
2026-05-09 21:15 55.22112 -5.03895 25082 ft 356 kts 46°
2026-05-09 21:15 55.23707 -5.00564 24494 ft 356 kts 46°
2026-05-09 21:16 55.25296 -4.97244 23972 ft 354 kts 46°
2026-05-09 21:16 55.26869 -4.93951 23457 ft 350 kts 46°
2026-05-09 21:16 55.28411 -4.90716 22958 ft 345 kts 46°
2026-05-09 21:16 55.29925 -4.87538 22434 ft 342 kts 46°
2026-05-09 21:17 55.31452 -4.84329 21886 ft 338 kts 46°
2026-05-09 21:17 55.32950 -4.81175 21346 ft 334 kts 46°
2026-05-09 21:17 55.34433 -4.78053 20816 ft 331 kts 46°
2026-05-09 21:17 55.35880 -4.74999 20304 ft 328 kts 46°
2026-05-09 21:18 55.37350 -4.71894 19786 ft 325 kts 46°
2026-05-09 21:18 55.38768 -4.68894 19303 ft 321 kts 46°
2026-05-09 21:18 55.40189 -4.65885 18836 ft 318 kts 46°
2026-05-09 21:18 55.41596 -4.62902 18309 ft 315 kts 46°
2026-05-09 21:19 55.45739 -4.54098 16676 ft 307 kts 46°
2026-05-09 21:19 55.47094 -4.51211 16158 ft 304 kts 46°
2026-05-09 21:20 55.48436 -4.48347 15637 ft 303 kts 46°
2026-05-09 21:20 55.49773 -4.45492 15127 ft 300 kts 46°
2026-05-09 21:20 55.51097 -4.42661 14646 ft 298 kts 46°
2026-05-09 21:20 55.52410 -4.39849 14158 ft 295 kts 46°
2026-05-09 21:21 55.53710 -4.37064 13617 ft 293 kts 46°
2026-05-09 21:21 55.55001 -4.34294 13125 ft 290 kts 46°
2026-05-09 21:21 55.56271 -4.31564 12679 ft 285 kts 46°
2026-05-09 21:21 55.57519 -4.28880 12240 ft 281 kts 46°
2026-05-09 21:22 55.58758 -4.26214 11755 ft 280 kts 47°
2026-05-09 21:22 55.59988 -4.23565 11283 ft 278 kts 47°
2026-05-09 21:22 55.61212 -4.20925 10843 ft 276 kts 47°
2026-05-09 21:22 55.62425 -4.18303 10376 ft 275 kts 47°
2026-05-09 21:23 55.63633 -4.15693 9888 ft 273 kts 47°
2026-05-09 21:23 55.64830 -4.13103 9423 ft 270 kts 47°
2026-05-09 21:23 55.66010 -4.10544 8976 ft 267 kts 47°
2026-05-09 21:23 55.67178 -4.08011 8523 ft 266 kts 48°
2026-05-09 21:24 55.68343 -4.05483 8216 ft 262 kts 48°
2026-05-09 21:24 55.69102 -4.03831 7981 ft 260 kts 48°
2026-05-09 21:24 55.70242 -4.01352 7584 ft 258 kts 49°
2026-05-09 21:24 55.71372 -3.98891 7209 ft 256 kts 49°
2026-05-09 21:25 55.72492 -3.96452 6846 ft 255 kts 49°
2026-05-09 21:25 55.73603 -3.94027 6546 ft 250 kts 49°
2026-05-09 21:25 55.74678 -3.91677 6459 ft 241 kts 49°
2026-05-09 21:25 55.75711 -3.89419 6367 ft 233 kts 49°
2026-05-09 21:26 55.76726 -3.87201 6175 ft 229 kts 49°
2026-05-09 21:26 55.77727 -3.85011 5918 ft 228 kts 49°
2026-05-09 21:26 55.78726 -3.82820 5661 ft 228 kts 49°
2026-05-09 21:26 55.79721 -3.80637 5427 ft 227 kts 49°
2026-05-09 21:27 55.81049 -3.77722 5095 ft 226 kts 49°
2026-05-09 21:27 55.81694 -3.76277 4932 ft 226 kts 52°
2026-05-09 21:27 55.82538 -3.73928 4700 ft 225 kts 57°
2026-05-09 21:27 55.83373 -3.71584 4459 ft 223 kts 56°
2026-05-09 21:28 55.84213 -3.69249 4160 ft 225 kts 57°
2026-05-09 21:28 55.85030 -3.66859 3860 ft 227 kts 58°
2026-05-09 21:28 55.85844 -3.64436 3551 ft 229 kts 59°
2026-05-09 21:28 55.86661 -3.61999 3246 ft 228 kts 59°
2026-05-09 21:29 55.87463 -3.59610 2911 ft 219 kts 59°
2026-05-09 21:29 55.88224 -3.57343 2610 ft 207 kts 60°
2026-05-09 21:29 55.88942 -3.55209 2319 ft 195 kts 60°
2026-05-09 21:29 55.89624 -3.53180 2065 ft 187 kts 60°
2026-05-09 21:30 55.90278 -3.51238 1802 ft 177 kts 60°
2026-05-09 21:30 55.90889 -3.49425 1554 ft 165 kts 60°
2026-05-09 21:30 55.91457 -3.47741 1334 ft 152 kts 60°
2026-05-09 21:30 55.91972 -3.46209 1128 ft 140 kts 60°
2026-05-09 21:31 55.92469 -3.44736 944 ft 137 kts 59°
2026-05-09 21:31 55.92955 -3.43269 748 ft 137 kts 59°
2026-05-09 21:31 55.93450 -3.41825 579 ft 137 kts 59°
2026-05-09 21:31 55.93940 -3.40371 382 ft 137 kts 58°
2026-05-09 21:32 55.94433 -3.38918 189 ft 136 kts 59°
2026-05-09 21:32 55.94902 -3.37534 110 ft 114 kts 58°
2026-05-09 21:32 55.95189 -3.36692 111 ft 33 kts 59°
2026-05-09 21:32 55.95260 -3.36468 110 ft 13 kts 81°
2026-05-09 21:33 55.95204 -3.36362 112 ft 10 kts 148°
2026-05-09 21:33 55.95187 -3.36343 114 ft 2 kts 150°
2026-05-09 21:33 55.95178 -3.36334 114 ft 1 kts 150°
2026-05-09 21:33 55.95160 -3.36318 114 ft 8 kts 157°
2026-05-09 21:34 55.95092 -3.36407 112 ft 18 kts 240°
2026-05-09 21:34 55.95017 -3.36628 112 ft 19 kts 239°
2026-05-09 21:34 55.94976 -3.36749 113 ft 5 kts 238°
2026-05-09 21:34 55.94972 -3.36761 113 ft 0 kts 238°
2026-05-09 21:37 55.94953 -3.36807 114 ft 12 kts 223°
2026-05-09 21:37 55.94865 -3.36784 113 ft 14 kts 169°
2026-05-09 21:37 55.94770 -3.36762 115 ft 14 kts 149°
2026-05-09 21:38 55.94680 -3.36732 115 ft 13 kts 178°
2026-05-09 21:38 55.94624 -3.36734 115 ft 2 kts 174°
2026-05-09 21:38 55.94611 -3.36697 114 ft 6 kts 99°
2026-05-09 21:38 55.94612 -3.36637 115 ft 2 kts 89°
2026-05-09 21:39 55.94612 -3.36634 115 ft 0 kts 89°